This is the latest recevied weather packets stored in our database for station/object NR0A-4. If no packets are shown the sender has not sent any weather packets the latest 10 day(s).
| Time | Temp. | Humidity | Pressure | Rain* | Wind** | Luminosity | Snow |
|---|---|---|---|---|---|---|---|
| 1788624904 | 23.33° C | 72% | 1016.7 hPa | 0 mm | - | 200 W/m² | - |
| 1788624604 | 23.33° C | 73% | 1016.7 hPa | 0 mm | - | 169 W/m² | - |
| 1788624304 | 23.89° C | 72% | 1016.8 hPa | 0 mm | - | 176 W/m² | - |
| 1788624003 | 23.89° C | 72% | 1016.9 hPa | 0 mm | - | 176 W/m² | - |
| 1788623704 | 23.89° C | 72% | 1016.9 hPa | 0 mm | - | 167 W/m² | - |
| 1788623405 | 23.89° C | 72% | 1016.8 hPa | 0 mm | - | 179 W/m² | - |
| 1788623104 | 23.89° C | 74% | 1016.9 hPa | 0 mm | - | 185 W/m² | - |
| 1788622804 | 23.89° C | 74% | 1016.8 hPa | 0 mm | - | 181 W/m² | - |
| 1788622504 | 23.89° C | 74% | 1016.7 hPa | 0 mm | - | 171 W/m² | - |
| 1788622205 | 23.33° C | 76% | 1016.6 hPa | 0 mm | - | 185 W/m² | - |
| 1788621904 | 23.33° C | 76% | 1016.6 hPa | 0 mm | - | 171 W/m² | - |
| 1788621604 | 23.33° C | 77% | 1016.7 hPa | 0 mm | - | 181 W/m² | - |
| 1788621304 | 23.33° C | 77% | 1016.7 hPa | 0 mm | - | 179 W/m² | - |
| 1788621004 | 23.33° C | 78% | 1016.7 hPa | 0 mm | - | 155 W/m² | - |
| 1788620712 | 23.33° C | 79% | 1016.8 hPa | 0 mm | - | 141 W/m² | - |
| 1788620404 | 23.89° C | 78% | 1016.8 hPa | 0 mm | - | 135 W/m² | - |
| 1788620104 | 23.89° C | 79% | 1016.8 hPa | 0 mm | - | 185 W/m² | - |
| 1788619804 | 23.89° C | 79% | 1016.8 hPa | 0 mm | - | 169 W/m² | - |
| 1788619504 | 23.89° C | 80% | 1016.7 hPa | 0 mm | - | 185 W/m² | - |
| 1788619204 | 23.89° C | 80% | 1016.6 hPa | 0 mm | - | 176 W/m² | - |
| 1788618904 | 23.89° C | 80% | 1016.5 hPa | 0 mm | - | 146 W/m² | - |
| 1788618604 | 23.89° C | 80% | 1016.5 hPa | 0 mm | - | 123 W/m² | - |
| 1788618304 | 24.44° C | 81% | 1016.3 hPa | 0 mm | - | 102 W/m² | - |
| 1788618004 | 24.44° C | 81% | 1016.3 hPa | 0 mm | - | 88 W/m² | - |
| 1788617704 | 24.44° C | 82% | 1016 hPa | 0 mm | - | 90 W/m² | - |
* Rain latest hour (hover to see other rain measurements)
** Current wind speed in m/s (hover to see current wind gust speed)